Regional Weather Roundup
Issued by NWS

Home | Current Version | Previous Version | Graphics & Text | Print | Product List | Glossary On
Versions: 1 2 3 4 5 6 7 8 9 10 11 12 13 14 15 16 17 18 19 20 21 22 23 24 25 26 27 28 29 30 31 32 33 34 35 36 37 38 39 40 41 42 43 44 45 46 47 48 49 50
000
ASUS43 KLMK 290602
RWRKY
KENTUCKY REGIONAL WEATHER ROUNDUP
NATIONAL WEATHER SERVICE LOUISVILLE KY
200 AM EDT THU SEP 29 2016

NOTE "FAIR" INDICATES FEW OR NO CLOUDS BELOW 12,000 FEET
WITH NO SIGNIFICANT WEATHER AND/OR OBSTRUCTIONS TO VISIBILITY.

KYZ001>023-026-027-061>063-070>075-290700-
WESTERN AND SOUTH CENTRAL KENTUCKY

CITY           SKY/WX    TMP DP  RH WIND       PRES   REMARKS
PADUCAH        CLEAR     53  46  77 W6        30.08S
HENDERSON      PTCLDY    52  45  76 W6        30.04S
OWENSBORO      NOT AVBL
HOPKINSVILLE   CLEAR     52  45  78 W6        30.05S
BOWLING GREEN  CLEAR     51  47  86 W3        30.03S
GLASGOW        NOT AVBL
$$

KYZ024-025-028>034-038-045-046-053-290700-
NORTH CENTRAL KENTUCKY

CITY           SKY/WX    TMP DP  RH WIND       PRES   REMARKS
LOUISVILLE/SDF MOCLDY    55  49  80 W5        29.99F
LOUISVILLE/LOU MOCLDY    56  49  77 W5        30.00S
FORT KNOX      MOCLDY    49  47  92 W6        29.98F
$$

KYZ035>037-039>044-047>052-055>060-089>105-290700-
NORTHEAST KENTUCKY

CITY           SKY/WX    TMP DP  RH WIND       PRES   REMARKS
LEXINGTON      CLEAR     52  49  89 S5        29.98R
COVINGTON      FOG       51  51 100 W3        29.96F VSB 1/4
FRANKFORT      CLEAR     53  49  86 NW3       29.97F
$$

KYZ054-064>069-076>088-106>120-290700-
SOUTHEAST KENTUCKY

CITY           SKY/WX    TMP DP  RH WIND       PRES   REMARKS
JACKSON        CLOUDY    57  56  96 CALM      29.99R FOG
LONDON         CLOUDY    56  53  90 SW3       29.99F
SOMERSET       CLOUDY    54  54 100 CALM      30.01F
MIDDLESBORO    LGT RAIN  59  58  96 CALM      29.99R
MONTICELLO     FOG       52  51  97 W10       30.02S VSB 1/4
$$





USA.gov is the U.S. government's official web portal to all federal, state and local government web resources and services.